Location: Augustenthal
(51.7167°N, 10.2833°E)
Time: 20:52:21
(UTC+00:00)

ALOS 2 - Pass Details

Date: 20 September 2021
Orbit: 630 x 632 km, 97.9° (Epoch: 20 October)

Event Time Altitude Azimuth Distance (km) Brightness Sun altitude
Exits shadow 23:13:36 13° 333° (NNW) 1,834 5.5 -37.6°
Drops below altitude 10° 23:14:06 10° 335° (NNW) 2,026 5.8 -37.6°
Sets 23:16:24 0° 342° (NNW) 2,939 6.9 -37.6°
